When you browse on this site, cookies collect data to enhance your experience and personalize the content and advertising you see.
Visit our Privacy Policy to learn more. By continuing to use the site, you agree to this use of cookies and data.
  • In Germany
  • List of Countries
  • For 7 days
  • Water Temperature
  • Satellite Maps
  • Weather Map
  • Weather Widgets
  • user-avatar
    Login

    Hourly Weather Satif

    Today, 23 July, Tuesday

    Time Temperature Precipitation Wind Pressure Humidity
    00:00 +24°C° 0 mm 1 mps 676 mmHg 44%
    01:00 +23°C° 0 mm 1 mps 675 mmHg 45%
    02:00 +23°C° 0 mm 1 mps 675 mmHg 45%
    03:00 +22°C° 0 mm 1 mps 674 mmHg 46%
    04:00 +23°C° 0 mm 1 mps 675 mmHg 43%
    05:00 +24°C° 0 mm 1 mps 675 mmHg 41%
    06:00 +25°C° 0 mm 1 mps 676 mmHg 38%
    07:00 +27°C° 0 mm 1 mps 676 mmHg 35%
    08:00 +28°C° 0 mm 1 mps 676 mmHg 31%
    09:00 +29°C° 0 mm 1 mps 677 mmHg 28%
    10:00 +31°C° 0 mm 1 mps 677 mmHg 24%
    11:00 +32°C° 0 mm 1 mps 677 mmHg 21%
    12:00 +33°C° 0 mm 1 mps 677 mmHg 17%
    13:00 +33°C° 0 mm 1 mps 676 mmHg 16%
    14:00 +34°C° 0 mm 1 mps 676 mmHg 15%
    15:00 +36°C° 0 mm 2 mps 676 mmHg 14%
    16:00 +35°C° 0 mm 2 mps 676 mmHg 16%
    17:00 +34°C° 0 mm 3 mps 676 mmHg 17%
    18:00 +34°C° 0 mm 4 mps 675 mmHg 18%
    19:00 +32°C° 0 mm 4 mps 675 mmHg 22%
    20:00 +29°C° 0 mm 3 mps 675 mmHg 26%
    21:00 +28°C° 0 mm 3 mps 675 mmHg 30%
    22:00 +27°C° 0 mm 2 mps 674 mmHg 30%
    23:00 +26°C° 0 mm 2 mps 674 mmHg 31%

    Tomorrow, 24 July, Wednesday

    Time Temperature Precipitation Wind Pressure Humidity
    00:00 +26°C° 0 mm 2 mps 674 mmHg 31%
    01:00 +25°C° 0 mm 1 mps 674 mmHg 33%
    02:00 +25°C° 0 mm 1 mps 673 mmHg 34%
    03:00 +24°C° 0 mm 1 mps 673 mmHg 35%
    04:00 +25°C° 0 mm 1 mps 673 mmHg 34%
    05:00 +25°C° 0 mm 2 mps 673 mmHg 32%
    06:00 +26°C° 0 mm 2 mps 674 mmHg 31%
    07:00 +28°C° 0 mm 3 mps 674 mmHg 27%
    08:00 +30°C° 0 mm 3 mps 675 mmHg 24%
    09:00 +32°C° 0 mm 4 mps 675 mmHg 21%
    10:00 +33°C° 0 mm 4 mps 675 mmHg 19%
    11:00 +35°C° 0 mm 4 mps 676 mmHg 18%
    12:00 +36°C° 0 mm 5 mps 676 mmHg 16%
    13:00 +36°C° 0 mm 5 mps 675 mmHg 16%
    14:00 +36°C° 0 mm 5 mps 675 mmHg 16%
    15:00 +36°C° 0 mm 5 mps 675 mmHg 16%
    16:00 +35°C° 0 mm 4 mps 675 mmHg 17%
    17:00 +35°C° 0 mm 4 mps 674 mmHg 19%
    18:00 +34°C° 0 mm 3 mps 674 mmHg 20%
    19:00 +31°C° 0 mm 2 mps 674 mmHg 24%
    20:00 +29°C° 0 mm 2 mps 674 mmHg 27%
    21:00 +27°C° 0 mm 1 mps 674 mmHg 31%
    22:00 +27°C° 0 mm 1 mps 673 mmHg 33%
    23:00 +26°C° 0 mm 1 mps 673 mmHg 34%

    Day after tomorrow, 25 July, Thursday

    Time Temperature Precipitation Wind Pressure Humidity
    00:00 +25°C° 0 mm 1 mps 673 mmHg 35%
    01:00 +25°C° 0 mm 1 mps 672 mmHg 36%
    02:00 +24°C° 0 mm 1 mps 672 mmHg 37%
    03:00 +24°C° 0 mm 1 mps 672 mmHg 38%
    04:00 +25°C° 0 mm 1 mps 672 mmHg 35%
    05:00 +26°C° 0 mm 1 mps 673 mmHg 33%
    06:00 +27°C° 0 mm 1 mps 673 mmHg 30%
    07:00 +29°C° 0 mm 2 mps 674 mmHg 26%
    08:00 +31°C° 0 mm 2 mps 674 mmHg 22%
    09:00 +33°C° 0 mm 3 mps 675 mmHg 19%
    10:00 +35°C° 0 mm 3 mps 675 mmHg 17%
    11:00 +36°C° 0 mm 4 mps 675 mmHg 15%
    12:00 +37°C° 0 mm 4 mps 675 mmHg 13%
    13:00 +37°C° 0 mm 5 mps 675 mmHg 13%
    14:00 +37°C° 0 mm 5 mps 675 mmHg 13%
    15:00 +37°C° 0 mm 5 mps 674 mmHg 13%
    16:00 +36°C° 0 mm 5 mps 674 mmHg 14%
    17:00 +35°C° 0 mm 5 mps 674 mmHg 16%
    18:00 +33°C° 0 mm 4 mps 673 mmHg 17%
    19:00 +30°C° 0 mm 3 mps 673 mmHg 21%
    20:00 +28°C° 0 mm 2 mps 673 mmHg 25%
    21:00 +26°C° 0 mm 1 mps 673 mmHg 28%
    22:00 +26°C° 0 mm 1 mps 672 mmHg 30%
    23:00 +25°C° 0 mm 1 mps 672 mmHg 31%

    26 July, Friday

    Time Temperature Precipitation Wind Pressure Humidity
    00:00 +24°C° 0 mm 1 mps 672 mmHg 32%
    01:00 +22°C° 0 mm 0 mps 671 mmHg 34%
    02:00 +22°C° 0 mm 0 mps 671 mmHg 35%
    03:00 +21°C° 0 mm 0 mps 671 mmHg 37%
    04:00 +22°C° 0 mm 0 mps 671 mmHg 34%
    05:00 +24°C° 0 mm 0 mps 672 mmHg 31%
    06:00 +27°C° 0 mm 1 mps 672 mmHg 28%
    07:00 +29°C° 0 mm 1 mps 673 mmHg 24%
    08:00 +31°C° 0 mm 2 mps 673 mmHg 20%
    09:00 +34°C° 0 mm 3 mps 674 mmHg 16%
    10:00 +35°C° 0 mm 4 mps 674 mmHg 14%
    11:00 +36°C° 0 mm 5 mps 674 mmHg 12%
    12:00 +38°C° 0 mm 6 mps 674 mmHg 11%
    13:00 +38°C° 0 mm 6 mps 673 mmHg 11%
    14:00 +38°C° 0 mm 7 mps 673 mmHg 11%
    15:00 +38°C° 0 mm 7 mps 673 mmHg 11%
    16:00 +38°C° 0 mm 6 mps 672 mmHg 12%
    17:00 +36°C° 0 mm 5 mps 672 mmHg 13%
    18:00 +35°C° 0 mm 3 mps 672 mmHg 14%
    19:00 +33°C° 0 mm 3 mps 672 mmHg 16%
    20:00 +31°C° 0 mm 2 mps 672 mmHg 19%
    21:00 +29°C° 0 mm 2 mps 672 mmHg 21%
    22:00 +29°C° 0 mm 1 mps 671 mmHg 22%
    23:00 +29°C° 0 mm 1 mps 671 mmHg 23%

    27 July, Saturday

    Time Temperature Precipitation Wind Pressure Humidity
    00:00 +29°C° 0 mm 1 mps 670 mmHg 24%
    01:00 +28°C° 0 mm 1 mps 670 mmHg 25%
    02:00 +27°C° 0 mm 1 mps 669 mmHg 27%
    03:00 +26°C° 0 mm 1 mps 669 mmHg 29%
    04:00 +26°C° 0.1 mm 1 mps 669 mmHg 30%
    05:00 +27°C° 0.1 mm 1 mps 669 mmHg 31%
    06:00 +27°C° 0.1 mm 1 mps 670 mmHg 33%
    07:00 +29°C° 0.2 mm 2 mps 670 mmHg 30%
    08:00 +30°C° 0.2 mm 3 mps 670 mmHg 28%
    09:00 +31°C° 0.2 mm 3 mps 671 mmHg 26%
    10:00 +33°C° 0 mm 5 mps 671 mmHg 25%
    11:00 +34°C° 0 mm 6 mps 671 mmHg 24%
    12:00 +35°C° 0 mm 8 mps 671 mmHg 23%
    13:00 +34°C° 0 mm 8 mps 671 mmHg 22%
    14:00 +34°C° 0 mm 8 mps 671 mmHg 21%
    15:00 +34°C° 0 mm 7 mps 670 mmHg 20%
    16:00 +32°C° 0 mm 7 mps 670 mmHg 30%
    17:00 +28°C° 0 mm 6 mps 670 mmHg 39%
    18:00 +26°C° 0 mm 5 mps 669 mmHg 48%
    19:00 +25°C° 0 mm 4 mps 670 mmHg 52%
    20:00 +24°C° 0 mm 3 mps 670 mmHg 56%
    21:00 +23°C° 0 mm 2 mps 670 mmHg 59%
    22:00 +22°C° 0 mm 1 mps 670 mmHg 61%
    23:00 +22°C° 0 mm 1 mps 670 mmHg 63%

    28 July, Sunday

    Time Temperature Precipitation Wind Pressure Humidity
    00:00 +21°C° 0 mm 1 mps 669 mmHg 65%
    01:00 +20°C° 0 mm 1 mps 669 mmHg 67%
    02:00 +20°C° 0 mm 1 mps 669 mmHg 68%
    03:00 +18°C° 0 mm 2 mps 668 mmHg 70%
    04:00 +18°C° 0 mm 2 mps 669 mmHg 70%
    05:00 +19°C° 0 mm 2 mps 669 mmHg 70%
    06:00 +19°C° 0 mm 2 mps 669 mmHg 70%
    07:00 +21°C° 0 mm 3 mps 670 mmHg 59%
    08:00 +22°C° 0 mm 3 mps 671 mmHg 47%
    09:00 +25°C° 0 mm 4 mps 672 mmHg 36%
    10:00 +26°C° 0 mm 4 mps 672 mmHg 32%
    11:00 +28°C° 0 mm 4 mps 672 mmHg 28%
    12:00 +29°C° 0 mm 4 mps 673 mmHg 25%
    13:00 +29°C° 0 mm 3 mps 672 mmHg 24%
    14:00 +30°C° 0 mm 3 mps 672 mmHg 23%
    15:00 +30°C° 0 mm 3 mps 672 mmHg 23%
    16:00 +30°C° 0 mm 3 mps 672 mmHg 26%
    17:00 +29°C° 0 mm 4 mps 672 mmHg 28%
    18:00 +28°C° 0 mm 4 mps 671 mmHg 31%
    19:00 +26°C° 0 mm 3 mps 671 mmHg 36%
    20:00 +25°C° 0 mm 2 mps 672 mmHg 41%
    21:00 +24°C° 0 mm 2 mps 672 mmHg 47%
    22:00 +23°C° 0 mm 1 mps 671 mmHg 48%
    23:00 +23°C° 0 mm 1 mps 671 mmHg 50%
    Show more